Location: Foxtrotter Observatory
(29.3381°N, 82.2844°W)
Time: 04:54:09
(UTC-05:00)

Envisat - Visible Passes

Search period start: 20 February 2018 00:00
Search period end: 02 March 2018 00:00
Orbit: 764 x 766 km, 98.2° (Epoch: 19 February)

Date Brightness Start Highest point End Pass type
(mag) Time Alt. Az. Time Alt. Az. Time Alt. Az.
20 Feb 3.6 19:28:54 10° SE 19:33:25 33° ENE 19:37:56 10° N visible
20 Feb 5.3 21:08:42 10° SW 21:12:23 20° W 21:16:06 10° NW visible
21 Feb 4.6 18:54:29 10° E 18:57:02 14° ENE 18:59:34 10° NE visible
21 Feb 3.7 20:30:42 10° S 20:35:33 50° W 20:40:29 10° NNW visible
22 Feb 2.9 19:53:52 10° SSE 19:58:52 64° ENE 20:03:53 10° N visible
23 Feb 3.9 19:18:13 10° SE 19:22:21 26° ENE 19:26:30 10° NNE visible
23 Feb 4.9 20:57:00 10° SSW 21:01:12 26° W 21:05:27 10° NW visible
24 Feb 4.8 18:45:07 10° ENE 18:46:02 10° ENE 18:46:56 10° NE visible
24 Feb 3.2 20:19:23 10° S 20:24:24 67° WSW 20:29:28 10° NNW visible
25 Feb 3.1 19:42:55 10° SSE 19:47:46 48° ENE 19:52:38 10° N visible
25 Feb 5.8 21:24:27 10° WSW 21:26:56 14° W 21:29:26 10° WNW visible
26 Feb 4.2 19:07:41 10° ESE 19:11:19 20° ENE 19:14:56 10° NNE visible
26 Feb 4.5 20:45:27 10° SSW 20:50:02 34° W 20:54:38 10° NNW visible
27 Feb 2.9 20:08:12 10° SSE 20:13:16 88° WSW 20:18:22 10° NNW visible
28 Feb 3.5 19:32:04 10° SE 19:36:41 37° ENE 19:41:20 10° N visible
28 Feb 5.5 21:12:19 10° SW 21:15:44 18° W 21:19:10 10° NW visible
01 Mar 4.5 18:57:22 10° ESE 19:00:17 16° ENE 19:03:12 10° NNE visible
01 Mar 4.0 20:34:02 10° S 20:38:52 45° W 20:43:43 10° NNW visible
